Wind_Speed
58 54 46 49 48 40 40 35 32 33 38 29 25 27 29 27 28 27 26 29 27 26 27 28 30 30 32 33 33 33 36 35 32 30 28 27 29 30 33 34 37 39 41 43
64 53 57 57 47 41 43 39 33 33 37 31 24 26 29 27 28 31 28 30 33 33 33 35 35 36 34 33 33 34 35 31 31 32 30 29 33 37 40 42 44 44 44 46
56 58 60 54 40 42 44 39 34 35 36 27 24 25 30 29 30 32 32 34 36 37 39 40 37 34 32 33 35 33 31 33 33 34 34 37 40 44 47 48 48 49 50 52
63 63 57 54 44 44 44 41 37 38 36 30 28 28 30 32 31 30 35 37 36 35 34 35 35 36 35 33 31 32 35 36 36 38 41 43 47 51 53 54 53 56 59 61
62 59 55 51 45 46 47 45 39 39 31 32 26 28 31 33 29 29 32 35 34 36 35 31 30 29 30 32 34 37 37 39 41 45 47 51 53 55 56 57 59 63 66 66
59 59 57 52 47 44 51 43 39 38 32 32 29 28 34 29 26 26 25 29 30 28 30 30 31 33 33 36 38 38 41 44 48 51 54 56 58 60 62 63 66 69 70 69
60 59 57 54 48 45 43 41 36 37 33 31 32 32 34 29 27 26 28 29 30 30 31 32 33 33 35 37 40 43 47 51 55 57 58 59 60 63 66 69 71 70 74 74
59 56 57 51 47 45 46 41 39 37 38 38 36 34 34 33 30 30 29 31 33 33 34 35 37 38 41 44 47 51 54 58 60 61 62 65 68 72 74 73 73 77 78 81
64 59 60 58 55 48 40 43 40 39 42 41 37 36 37 38 35 36 34 34 36 35 36 38 42 44 48 53 55 57 60 61 63 66 68 71 74 76 77 78 80 82 85 88
69 66 61 53 48 46 47 42 41 44 45 42 41 38 40 41 41 39 38 40 40 42 43 45 47 50 54 56 59 62 64 66 68 71 73 75 78 81 83 85 88 90 92 93
52 52 52 50 50 48 44 44 44 45 46 44 45 41 42 45 45 44 44 45 48 50 50 51 53 57 59 60 64 68 69 71 74 75 78 81 84 88 90 92 95 97 99 101
43 45 49 49 45 42 42 44 45 46 46 46 46 44 45 46 45 46 48 49 51 54 56 57 59 62 63 67 71 74 76 79 82 85 89 92 95 98 100 102 104 107 108 111
38 39 27 35 41 43 45 45 44 44 46 47 46 48 47 49 49 49 52 54 57 59 61 64 67 69 71 73 76 80 84 86 89 92 95 98 101 105 106 109 112 115 118 121
33 31 36 37 41 41 43 43 43 44 47 45 52 50 54 49 51 56 57 56 60 63 66 71 74 76 78 81 85 88 90 93 95 98 101 103 106 108 112 115 119 122 125 126
35 38 39 39 38 39 42 43 42 46 47 46 51 52 53 55 57 59 62 63 66 68 72 76 79 82 85 89 92 95 98 101 103 106 109 112 114 117 122 124 127 128 127 127
35 36 39 38 39 41 43 43 43 41 42 44 49 57 55 60 64 66 68 69 71 75 77 80 85 88 90 92 96 100 105 108 112 115 118 120 123 124 124 124 124 125 128 130
39 39 41 42 42 44 48 48 49 51 54 56 58 63 66 66 69 70 73 76 77 79 83 87 91 94 98 102 106 109 112 115 116 117 118 120 121 124 126 130 132 133 134 134
41 44 44 44 44 46 47 46 49 51 54 57 61 64 66 70 73 75 79 82 85 88 90 93 96 99 104 108 112 114 114 116 120 123 126 128 129 130 133 135 137 137 141 142
45 43 42 42 44 47 48 49 52 56 61 60 64 67 71 73 75 76 79 83 86 90 94 98 102 103 103 104 108 112 118 122 126 130 132 135 135 136 138 138 138 139 139 138
43 46 46 46 49 53 54 57 58 58 59 61 65 69 73 75 76 80 83 88 92 94 94 93 97 102 105 109 113 119 124 127 130 134 137 138 139 141 141 143 142 139 136 135
40 41 42 44 48 52 53 56 57 59 62 66 68 71 74 78 81 83 85 84 85 88 93 98 101 105 109 114 119 124 128 132 134 135 135 137 139 140 138 140 139 131 128 127
45 46 45 48 52 53 53 54 59 62 66 69 71 73 72 70 71 74 79 84 90 94 96 99 104 109 114 119 124 127 130 130 128 129 136 136 136 136 137 128 121 117 111 108
48 50 55 59 60 58 58 59 60 62 63 64 64 67 70 71 74 79 82 87 93 98 101 102 109 115 120 126 128 127 122 122 124 131 131 130 126 121 113 109 105 102 102 98
45 44 45 42 46 45 48 49 51 54 58 62 66 69 72 77 81 84 87 92 96 98 104 112 117 121 127 131 128 122 117 115 115 118 117 114 110 106 106 103 101 97 95 93
25 31 35 41 44 46 52 52 54 58 62 65 69 73 79 84 88 95 99 100 103 107 111 119 125 133 135 129 122 116 116 118 116 112 110 109 108 106 102 100 99 98 97 95
32 40 41 46 48 50 55 58 61 62 66 71 75 80 86 90 94 95 99 103 109 115 120 128 134 135 130 126 124 121 116 113 111 108 106 104 102 101 100 98 95 97 96 92
Wind_Direction
215 214 210 216 223 215 219 228 239 227 220 224 234 246 254 249 255 237 226 221 222 226 230 236 237 240 246 250 253 256 262 265 258 259 259 262 266 269 274 275 275 275 276 278
212 206 208 212 218 206 214 227 238 226 225 225 239 251 256 256 247 236 231 229 228 229 235 240 243 248 252 255 258 261 263 251 252 257 262 267 270 273 274 274 274 275 279 281
207 207 209 211 211 210 215 227 230 228 221 230 242 255 257 252 244 240 233 231 230 233 237 244 250 257 257 258 263 258 250 251 257 260 266 270 271 274 277 278 277 276 281 284
205 206 206 211 214 215 215 218 219 225 222 235 242 254 259 249 246 242 240 238 236 241 248 253 261 257 255 252 248 247 253 256 260 266 271 273 274 276 278 280 280 283 285 289
205 204 204 208 218 209 212 217 217 229 221 235 245 251 251 248 251 241 238 243 249 247 251 249 248 249 249 250 254 257 260 265 268 268 270 274 278 279 281 281 281 283 287 288
206 205 208 213 212 217 212 219 219 221 224 238 241 251 249 248 247 242 235 236 238 239 240 245 250 254 256 258 261 265 266 267 268 271 274 276 278 279 281 283 283 284 286 288
208 211 214 216 218 214 222 219 223 218 227 236 240 243 244 243 241 239 239 239 240 243 249 257 259 260 262 265 266 268 268 270 272 274 275 276 278 279 280 280 281 282 286 289
208 212 215 219 225 232 221 220 220 215 224 229 236 241 240 243 238 238 240 244 248 251 255 259 262 264 266 268 269 270 270 271 273 274 275 276 277 278 278 280 281 283 287 290
216 219 224 231 233 231 227 211 214 216 224 230 234 237 240 243 244 246 247 251 255 257 260 261 263 266 266 266 270 273 273 275 276 276 276 276 278 280 282 284 285 285 287 289
219 222 226 227 225 220 204 209 212 219 226 232 236 238 242 245 250 253 256 259 261 261 262 265 266 267 269 271 274 274 274 276 278 279 281 281 282 283 284 285 286 287 289 290
200 204 207 207 201 199 204 211 215 223 229 233 240 240 244 249 252 256 258 259 261 264 266 267 269 271 273 276 278 277 277 278 278 279 281 282 283 285 287 288 288 287 287 288
182 189 187 191 198 205 210 217 221 227 232 237 243 246 248 253 255 260 263 265 267 269 270 273 275 275 277 278 280 281 283 285 286 288 288 287 288 290 289 289 288 287 288 289
178 185 191 208 208 211 214 221 227 233 239 243 247 251 254 254 257 261 262 264 268 272 276 277 278 279 280 282 285 287 289 288 287 287 287 287 287 287 288 289 289 290 291 291
189 195 204 215 217 218 224 229 232 239 244 248 251 257 259 267 270 269 271 272 274 277 280 281 282 285 288 290 290 289 288 288 288 288 288 288 287 287 287 288 289 290 291 291
196 193 201 208 216 226 234 237 240 245 250 255 260 262 268 269 270 273 276 279 281 284 284 285 286 287 288 289 289 288 288 289 288 287 286 286 287 288 289 290 291 290 290 291
204 209 212 214 218 224 231 236 240 246 251 254 261 265 265 270 272 274 277 281 282 282 283 284 283 284 286 286 286 287 287 287 288 288 289 290 290 291 291 291 292 291 291 291
218 217 220 223 228 235 239 242 246 251 254 258 262 266 270 270 273 277 279 281 284 285 286 286 287 288 287 288 289 290 291 291 291 290 290 291 291 291 291 292 292 292 293 294
224 223 228 232 238 245 248 252 255 258 260 261 265 269 271 274 277 279 282 283 283 284 285 285 286 288 289 291 292 293 294 295 293 292 291 291 292 292 291 291 291 293 293 295
226 231 234 239 243 250 250 256 258 259 263 266 266 269 273 278 280 281 282 282 284 286 289 291 292 292 294 294 293 294 293 293 292 292 291 291 290 290 290 293 293 295 296 296
230 233 237 243 247 250 252 254 258 262 266 270 272 274 277 280 282 284 286 288 288 288 291 293 292 292 294 295 295 294 292 292 292 292 293 293 291 292 293 296 297 297 297 296
236 239 243 246 249 251 253 258 262 266 268 270 275 279 281 282 282 282 285 289 290 293 294 294 295 295 296 295 295 296 294 293 294 294 294 295 296 295 295 294 295 292 291 292
242 244 246 250 252 257 263 266 268 270 273 276 278 279 281 283 285 288 291 293 292 293 294 294 296 297 299 299 298 295 293 295 295 294 293 295 296 296 294 292 296 296 297 296
242 244 247 250 253 257 261 265 266 269 272 275 279 284 288 287 287 290 292 293 295 298 299 301 303 302 301 301 298 298 298 297 296 296 296 293 294 296 298 297 299 299 298 297
242 244 252 257 260 263 262 265 273 275 278 280 282 285 290 295 296 297 297 299 301 303 306 307 307 304 303 302 300 300 298 298 297 295 299 300 301 302 303 303 302 302 302 301
250 255 260 265 269 274 275 277 280 283 289 293 297 298 297 297 298 300 302 306 309 308 309 309 309 307 307 306 305 303 301 299 301 302 303 304 305 305 305 305 305 304 304 303
263 263 266 272 278 282 285 288 291 295 296 296 296 297 298 298 304 308 310 311 311 312 310 310 309 308 308 306 304 304 305 304 304 306 306 306 306 305 305 306 304 304 303 302
Height
10718 10729 10744 10746 10746 10757 10761 10764 10769 10773 10776 10781 10787 10790 10793 10795 10797 10797 10798 10799 10802 10804 10804 10807 10809 10811 10812 10813 10814 10815 10816 10816 10814 10813 10813 10812 10810 10808 10805 10803 10801 10797 10794 10792
10706 10724 10727 10732 10741 10752 10752 10759 10767 10769 10772 10779 10783 10786 10789 10792 10791 10791 10792 10795 10797 10798 10800 10802 10804 10805 10807 10808 10808 10809 10809 10808 10808 10807 10805 10803 10802 10799 10797 10794 10790 10788 10785 10782
10704 10712 10718 10731 10739 10742 10747 10755 10758 10760 10767 10774 10779 10782 10785 10785 10785 10785 10786 10788 10791 10793 10795 10797 10799 10801 10802 10802 10802 10802 10802 10802 10801 10799 10797 10795 10792 10789 10787 10784 10780 10777 10774 10770
10690 10701 10718 10726 10730 10735 10743 10748 10752 10759 10764 10771 10773 10779 10780 10779 10779 10779 10780 10782 10784 10786 10790 10793 10795 10795 10794 10794 10794 10794 10794 10792 10791 10790 10787 10785 10783 10778 10775 10772 10768 10764 10761 10757
10689 10704 10714 10718 10722 10730 10734 10741 10747 10755 10759 10767 10771 10774 10775 10774 10774 10774 10775 10778 10782 10784 10785 10787 10787 10787 10786 10787 10787 10787 10785 10783 10782 10780 10778 10775 10771 10767 10763 10761 10756 10751 10746 10742
10681 10692 10701 10711 10717 10721 10730 10737 10745 10751 10757 10763 10767 10771 10770 10770 10769 10771 10773 10773 10775 10778 10780 10780 10780 10780 10779 10779 10777 10776 10774 10773 10771 10769 10766 10763 10760 10756 10752 10747 10742 10736 10731 10725
10677 10687 10694 10699 10707 10716 10724 10731 10741 10747 10754 10758 10761 10764 10764 10765 10765 10767 10769 10769 10771 10773 10774 10773 10773 10771 10770 10769 10768 10767 10765 10762 10760 10757 10753 10750 10747 10742 10737 10731 10726 10719 10713 10707
10670 10680 10688 10696 10702 10712 10718 10728 10736 10743 10747 10749 10754 10760 10760 10759 10761 10762 10764 10764 10764 10766 10765 10765 10765 10764 10763 10761 10758 10755 10752 10749 10747 10744 10740 10735 10730 10724 10718 10713 10708 10702 10695 10689
10661 10673 10678 10685 10697 10707 10716 10721 10730 10738 10742 10743 10749 10752 10754 10753 10755 10756 10758 10758 10757 10759 10758 10757 10755 10754 10751 10747 10746 10744 10740 10737 10733 10727 10722 10717 10712 10707 10702 10696 10690 10684 10677 10670
10656 10665 10674 10686 10694 10702 10709 10718 10725 10731 10735 10738 10741 10747 10746 10748 10750 10751 10751 10750 10750 10748 10747 10746 10744 10742 10739 10738 10734 10728 10724 10721 10717 10711 10705 10700 10695 10689 10683 10676 10669 10662 10654 10646
10651 10661 10670 10680 10689 10698 10705 10713 10721 10726 10730 10731 10734 10740 10740 10740 10743 10745 10746 10743 10739 10736 10737 10737 10735 10731 10727 10724 10718 10711 10709 10705 10698 10695 10690 10684 10676 10669 10661 10653 10645 10637 10629 10621
10653 10663 10670 10678 10689 10696 10703 10709 10715 10720 10723 10725 10726 10730 10732 10734 10734 10736 10735 10734 10730 10727 10725 10723 10720 10716 10715 10709 10701 10695 10694 10690 10685 10679 10670 10661 10653 10644 10636 10628 10619 10611 10603 10595
10654 10662 10672 10681 10686 10692 10697 10703 10710 10714 10717 10719 10719 10718 10722 10723 10727 10728 10726 10723 10719 10716 10714 10709 10704 10700 10698 10695 10689 10683 10677 10670 10662 10654 10646 10638 10629 10618 10611 10601 10592 10582 10574 10564
10656 10665 10672 10677 10683 10690 10695 10698 10703 10708 10708 10714 10706 10711 10707 10715 10714 10709 10709 10711 10707 10704 10698 10691 10687 10685 10683 10678 10669 10662 10655 10647 10640 10631 10622 10615 10605 10596 10585 10576 10566 10555 10544 10533
10653 10658 10663 10671 10677 10683 10686 10691 10697 10697 10700 10703 10700 10699 10700 10700 10699 10697 10694 10695 10693 10691 10684 10677 10672 10668 10663 10657 10648 10640 10632 10625 10615 10606 10597 10587 10578 10568 10557 10546 10533 10520 10509 10499
10652 10659 10663 10668 10673 10675 10677 10681 10684 10687 10690 10692 10693 10688 10694 10687 10684 10682 10683 10680 10679 10674 10670 10664 10655 10649 10644 10637 10627 10617 10608 10599 10588 10577 10566 10555 10544 10535 10523 10510 10498 10487 10476 10466
10649 10654 10658 10664 10667 10669 10670 10677 10680 10682 10683 10685 10685 10679 10675 10675 10671 10672 10668 10664 10661 10656 10649 10641 10634 10627 10618 10609 10599 10589 10579 10567 10556 10543 10528 10518 10508 10498 10486 10473 10462 10451 10442 10432
10646 10650 10655 10660 10662 10663 10668 10672 10672 10672 10672 10674 10671 10668 10665 10660 10659 10660 10654 10650 10642 10635 10629 10622 10614 10604 10593 10583 10571 10558 10546 10535 10522 10508 10496 10483 10472 10462 10450 10436 10425 10417 10407 10395
10643 10647 10652 10655 10657 10656 10660 10662 10661 10661 10656 10663 10658 10654 10651 10648 10646 10644 10638 10630 10622 10614 10606 10598 10587 10577 10568 10556 10545 10532 10518 10503 10490 10476 10462 10449 10437 10426 10413 10403 10391 10379 10368 10353
10636 10640 10644 10647 10648 10647 10650 10647 10650 10651 10649 10643 10642 10641 10638 10635 10632 10626 10618 10608 10599 10590 10582 10573 10562 10551 10541 10529 10517 10502 10487 10472 10457 10442 10429 10416 10403 10392 10380 10369 10353 10339 10328 10318
10631 10633 10636 10638 10637 10635 10637 10637 10638 10637 10637 10632 10629 10625 10621 10619 10613 10606 10598 10589 10580 10571 10562 10550 10538 10525 10511 10496 10481 10463 10447 10433 10422 10408 10393 10380 10368 10357 10344 10333 10319 10307 10296 10283
10620 10622 10624 10623 10622 10624 10626 10629 10625 10622 10619 10616 10613 10609 10604 10600 10595 10589 10581 10571 10560 10548 10537 10525 10511 10495 10478 10463 10447 10430 10415 10404 10389 10373 10361 10349 10334 10319 10307 10294 10281 10268 10256 10249
10607 10610 10611 10609 10608 10613 10614 10612 10610 10608 10604 10600 10596 10591 10585 10582 10576 10568 10559 10549 10537 10524 10510 10496 10480 10462 10444 10427 10411 10396 10384 10372 10357 10342 10326 10311 10295 10282 10269 10258 10246 10234 10222 10213
10597 10603 10601 10598 10597 10599 10598 10599 10598 10593 10589 10584 10579 10575 10566 10556 10548 10541 10534 10525 10512 10497 10481 10465 10448 10429 10409 10390 10374 10367 10356 10340 10323 10307 10291 10277 10265 10251 10235 10223 10210 10201 10189 10182
10591 10590 10590 10586 10586 10586 10580 10583 10580 10576 10570 10565 10557 10550 10543 10536 10527 10517 10506 10493 10480 10466 10451 10434 10415 10393 10373 10358 10344 10331 10317 10302 10286 10272 10257 10242 10229 10217 10206 10194 10181 10171 10159 10150
10581 10576 10577 10573 10572 10571 10566 10563 10560 10557 10552 10546 10540 10533 10525 10516 10506 10492 10480 10466 10451 10436 10419 10400 10380 10358 10341 10327 10311 10296 10281 10268 10255 10242 10226 10213 10201 10190 10180 10172 10165 10143 10130 10125